Location: Maddington
(51.2000°N, 1.9167°W)
Time: 01:31:54
(UTC+00:00)

NOSS 3-1 (C) - Pass Details

Date: 18 September 2020
Orbit: 743 x 1466 km, 63.4° (Epoch: 09 October)

Event Time Altitude Azimuth Distance (km) Brightness Sun altitude
Rises 23:19:02 0° 311° (NW) 3,758 7.2 -36.6°
Reaches altitude 10° 23:21:34 10° 317° (NW) 2,905 6.6 -36.7°
Maximum altitude 23:28:24 52° 33° (NNE) 1,472 4.5 -36.9°
Enters shadow 23:28:49 52° 44° (NE) 1,490 4.4 -37.0°
